EW5168 Weather Reports


Display with metric or nautical units.
time (UTC)temp
F
wind
direction
speed
MPH
gust
MPH
rain 1hr
in
rain 24hr
in
rain mn
in
humidity
%
barometer
mb
20260503210307 79 152 5.0 11.0 0.00 0.00 0.00 35 1018.3
20260503205807 79 204 5.0 11.0 0.00 0.00 0.00 35 1018.3
20260503205307 80 193 4.0 9.0 0.00 0.00 0.00 33 1018.3
20260503204810 80 87 4.0 10.0 0.00 0.00 0.00 35 1018.5
20260503204806 80 198 3.0 10.0 0.00 0.00 0.00 35 1018.5
20260503203805 79 184 5.0 12.0 0.00 0.00 0.00 35 1018.6
20260503203302 79 156 5.0 12.0 0.00 0.00 0.00 35 1018.7
20260503202802 80 135 5.0 12.0 0.00 0.00 0.00 35 1018.9
20260503202301 80 156 5.0 14.0 0.00 0.00 0.00 37 1019.0
20260503201805 80 197 5.0 14.0 0.00 0.00 0.00 40 1019.1
20260503201801 79 199 4.0 14.0 0.00 0.00 0.00 36 1019.1
20260503200803 80 114 5.0 13.0 0.00 0.00 0.00 36 1019.1
20260503200759 80 159 4.0 10.0 0.00 0.00 0.00 37 1019.0
20260503195759 80 146 5.0 13.0 0.00 0.00 0.00 37 1019.2
20260503195259 80 232 5.0 13.0 0.00 0.00 0.00 36 1019.3
20260503194759 80 180 5.0 13.0 0.00 0.00 0.00 37 1019.3
20260503194259 80 178 4.0 12.0 0.00 0.00 0.00 36 1019.4
20260503193759 80 247 4.0 12.0 0.00 0.00 0.00 33 1019.5
20260503193259 80 211 4.0 12.0 0.00 0.00 0.00 33 1019.5
20260503192759 80 169 3.0 11.0 0.00 0.00 0.00 37 1019.6
20260503192259 79 186 5.0 14.0 0.00 0.00 0.00 35 1019.7
20260503191802 79 215 5.0 11.0 0.00 0.00 0.00 33 1019.8
20260503191758 79 121 5.0 14.0 0.00 0.00 0.00 35 1019.8
20260503190757 80 160 4.0 11.0 0.00 0.00 0.00 33 1019.9
20260503190302 79 144 4.0 11.0 0.00 0.00 0.00 33 1020.0
20260503190257 80 218 4.0 11.0 0.00 0.00 0.00 34 1020.0
20260503185257 78 134 5.0 11.0 0.00 0.00 0.00 33 1020.2
20260503184755 78 166 4.0 12.0 0.00 0.00 0.00 34 1020.3
20260503184255 79 188 3.0 12.0 0.00 0.00 0.00 37 1020.4
20260503183755 79 232 3.0 11.0 0.00 0.00 0.00 37 1020.4
20260503183255 78 208 4.0 13.0 0.00 0.00 0.00 39 1020.5
20260503182754 78 213 4.0 13.0 0.00 0.00 0.00 37 1020.6
20260503182255 78 146 4.0 11.0 0.00 0.00 0.00 35 1020.7
20260503181753 79 103 3.0 10.0 0.00 0.00 0.00 38 1020.7
20260503181253 78 168 3.0 9.0 0.00 0.00 0.00 38 1020.8
20260503180757 78 197 4.0 11.0 0.00 0.00 0.00 36 1021.0
20260503180753 78 185 4.0 10.0 0.00 0.00 0.00 37 1020.9
20260503175753 78 196 5.0 14.0 0.00 0.00 0.00 39 1021.1
20260503175257 78 165 4.0 9.0 0.00 0.00 0.00 39 1021.2
20260503175253 78 164 5.0 14.0 0.00 0.00 0.00 38 1021.2
20260503174903 78 173 4.0 11.0 0.00 0.00 0.00 38 1021.3
20260503174859 78 190 4.0 11.0 0.00 0.00 0.00 39 1021.2
20260503173253 78 205 3.0 11.0 0.00 0.00 0.00 36 1021.5
20260503172753 78 209 4.0 12.0 0.00 0.00 0.00 42 1021.5
20260503172253 77 169 4.0 12.0 0.00 0.00 0.00 39 1021.6
20260503171751 77 155 3.0 8.0 0.00 0.00 0.00 39 1021.7
20260503171255 76 176 2.0 7.0 0.00 0.00 0.00 42 1021.8
20260503171251 77 190 2.0 8.0 0.00 0.00 0.00 40 1021.7
20260503170249 76 226 2.0 10.0 0.00 0.00 0.00 40 1021.9
20260503150737 69 164 2.0 8.0 0.00 0.00 0.00 33 1022.4
20260503150236 68 202 2.0 4.0 0.00 0.00 0.00 32 1022.4
20260503131225 56 231 1.0 4.0 0.00 0.00 0.00 1 1021.7
20260503130727 56 235 0.0 2.0 0.00 0.00 0.00 1 1021.6
20260503130227 56 242 1.0 3.0 0.00 0.00 0.00 1 1021.6
20260503120212 53 229 0.0 2.0 0.00 0.00 0.00 1 1021.0
20260503110706 53 223 0.0 2.0 0.00 0.00 0.00 1 1020.7
20260503110204 53 223 0.0 2.0 0.00 0.00 0.00 1 1020.7
20260503100155 54 212 0.0 3.0 0.00 0.00 0.00 1 1020.4
20260503090152 55 159 0.0 1.0 0.00 0.00 0.00 4 1020.3
20260503081251 56 148 0.0 2.0 0.00 0.00 0.00 15 1020.2
20260503081149 56 159 0.0 1.0 0.00 0.00 0.00 15 1020.2
20260503081145 56 159 0.0 2.0 0.00 0.00 0.00 13 1020.2
20260503072643 57 199 0.0 1.0 0.00 0.00 0.00 27 1020.4
20260503072144 57 199 0.0 1.0 0.00 0.00 0.00 28 1020.5
20260503071644 58 199 0.0 1.0 0.00 0.00 0.00 29 1020.6
20260503071143 58 199 0.0 1.0 0.00 0.00 0.00 30 1020.6
20260503070641 58 199 0.0 2.0 0.00 0.00 0.00 32 1020.6
20260503070145 58 196 0.0 1.0 0.00 0.00 0.00 33 1020.7
20260503070141 58 199 0.0 2.0 0.00 0.00 0.00 33 1020.7
20260503060134 60 197 1.0 4.0 0.00 0.00 0.00 39 1020.9
20260503054631 61 197 1.0 3.0 0.00 0.00 0.00 41 1020.9
20260503054131 61 192 1.0 4.0 0.00 0.00 0.00 42 1021.1
20260503053633 60 168 2.0 4.0 0.00 0.00 0.00 44 1021.1
20260503053628 61 178 2.0 4.0 0.00 0.00 0.00 43 1021.0
20260503052629 60 207 2.0 4.0 0.00 0.00 0.00 44 1021.0
20260503052129 60 196 1.0 4.0 0.00 0.00 0.00 44 1020.9
20260503051629 60 188 1.0 3.0 0.00 0.00 0.00 44 1020.8
20260503051134 61 193 1.0 2.0 0.00 0.00 0.00 44 1020.8
20260503051129 61 193 0.0 2.0 0.00 0.00 0.00 44 1020.9
20260503050129 61 193 1.0 2.0 0.00 0.00 0.00 45 1020.8
20260503045629 61 196 1.0 4.0 0.00 0.00 0.00 45 1020.8
20260503045130 61 190 1.0 4.0 0.00 0.00 0.00 46 1020.8
20260503044630 61 207 1.0 3.0 0.00 0.00 0.00 46 1020.8
20260503044130 61 218 1.0 4.0 0.00 0.00 0.00 47 1020.8
20260503043628 61 209 1.0 4.0 0.00 0.00 0.00 48 1020.8
20260503043130 62 208 1.0 3.0 0.00 0.00 0.00 49 1020.7
20260503043125 62 184 1.0 4.0 0.00 0.00 0.00 50 1020.7
20260503042124 62 192 1.0 4.0 0.00 0.00 0.00 50 1020.7
20260503041621 62 176 1.0 4.0 0.00 0.00 0.00 50 1020.7
20260503041121 62 179 1.0 3.0 0.00 0.00 0.00 50 1020.7
20260503040620 62 175 1.0 3.0 0.00 0.00 0.00 50 1020.7
20260503040119 62 175 1.0 2.0 0.00 0.00 0.00 50 1020.7
20260503035620 62 175 1.0 3.0 0.00 0.00 0.00 50 1020.6
20260503035116 62 180 1.0 4.0 0.00 0.00 0.00 50 1020.6
20260503034616 63 178 1.0 4.0 0.00 0.00 0.00 50 1020.6
20260503034116 63 200 1.0 3.0 0.00 0.00 0.00 50 1020.6
20260503033614 63 180 1.0 3.0 0.00 0.00 0.00 49 1020.5
20260503033114 63 180 2.0 3.0 0.00 0.00 0.00 50 1020.5
20260503032612 63 190 2.0 3.0 0.00 0.00 0.00 50 1020.5
20260503032111 63 190 1.0 3.0 0.00 0.00 0.00 50 1020.5
20260503031615 63 182 2.0 3.0 0.00 0.00 0.00 50 1020.6
20260503031611 63 190 2.0 3.0 0.00 0.00 0.00 50 1020.5
20260503031215 63 182 1.0 3.0 0.00 0.00 0.00 50 1020.6
20260503030110 63 182 1.0 3.0 0.00 0.00 0.00 50 1020.6
20260503025609 63 182 1.0 3.0 0.00 0.00 0.00 51 1020.4
20260503025109 63 182 1.0 3.0 0.00 0.00 0.00 51 1020.4
20260503024609 63 182 1.0 3.0 0.00 0.00 0.00 51 1020.2
20260503024109 63 182 1.0 3.0 0.00 0.00 0.00 52 1020.2
20260503023609 63 61 0.0 2.0 0.00 0.00 0.00 52 1020.1
20260503023108 64 61 0.0 2.0 0.00 0.00 0.00 52 1020.0
20260503022608 64 61 0.0 2.0 0.00 0.00 0.00 53 1020.0
20260503022108 64 61 0.0 2.0 0.00 0.00 0.00 53 1020.0
20260503021609 64 61 0.0 1.0 0.00 0.00 0.00 54 1020.0
20260503021106 64 61 0.0 1.0 0.00 0.00 0.00 54 1020.0
20260503020606 65 61 0.0 1.0 0.00 0.00 0.00 54 1019.8
20260503020105 65 61 0.0 1.0 0.00 0.00 0.00 54 1019.9
20260503015607 65 61 0.0 0.0 0.00 0.00 0.00 53 1019.9
20260503015602 65 61 0.0 1.0 0.00 0.00 0.00 53 1019.8
20260503014602 65 61 0.0 1.0 0.00 0.00 0.00 53 1019.8
20260503014102 66 61 0.0 0.0 0.00 0.00 0.00 53 1019.7
20260503013602 66 61 0.0 0.0 0.00 0.00 0.00 53 1019.5
20260503013101 67 61 0.0 0.0 0.00 0.00 0.00 53 1019.4
20260503012605 68 61 0.0 0.0 0.00 0.00 0.00 51 1019.5
20260503012601 67 61 0.0 0.0 0.00 0.00 0.00 52 1019.4
20260503011600 68 61 0.0 0.0 0.00 0.00 0.00 50 1019.5
20260503011104 69 61 0.0 1.0 0.00 0.00 0.00 48 1019.4
20260503011100 69 61 0.0 0.0 0.00 0.00 0.00 49 1019.5
20260503010100 70 61 0.0 1.0 0.00 0.00 0.00 47 1019.3
20260503005600 70 61 0.0 1.0 0.00 0.00 0.00 46 1019.3
20260503005100 71 61 0.0 2.0 0.00 0.00 0.00 45 1019.3
20260503004605 71 61 0.0 1.0 0.00 0.00 0.00 44 1019.4
20260503004600 71 61 0.0 2.0 0.00 0.00 0.00 45 1019.4
20260503003557 72 61 0.0 2.0 0.00 0.00 0.00 44 1019.4
20260503003057 72 61 0.0 2.0 0.00 0.00 0.00 44 1019.3
20260503002556 72 61 0.0 3.0 0.00 0.00 0.00 43 1019.2
20260503002056 72 61 1.0 3.0 0.00 0.00 0.00 42 1019.3
20260503001556 72 61 0.0 2.0 0.00 0.00 0.00 43 1019.2
20260503001054 73 61 0.0 2.0 0.00 0.00 0.00 43 1019.3
20260503000554 73 51 0.0 2.0 0.00 0.00 0.00 43 1019.2
20260503000053 73 51 1.0 2.0 0.00 0.00 0.00 42 1019.2
20260502235551 73 51 0.0 2.0 0.00 0.00 0.00 43 1019.2
20260502235052 73 50 0.0 2.0 0.00 0.00 0.00 42 1019.2
20260502234554 73 26 0.0 2.0 0.00 0.00 0.00 43 1019.2
20260502234550 73 28 0.0 2.0 0.00 0.00 0.00 43 1019.2
20260502233552 73 5 0.0 2.0 0.00 0.00 0.00 43 1019.2
20260502233548 73 5 0.0 2.0 0.00 0.00 0.00 41 1019.2
20260502232548 73 331 0.0 2.0 0.00 0.00 0.00 43 1019.2
20260502232047 73 332 0.0 2.0 0.00 0.00 0.00 43 1019.2
20260502231548 73 53 1.0 3.0 0.00 0.00 0.00 43 1019.2
20260502231050 74 70 1.0 3.0 0.00 0.00 0.00 42 1019.1
20260502231046 73 68 1.0 3.0 0.00 0.00 0.00 42 1019.2
20260502230045 73 15 1.0 3.0 0.00 0.00 0.00 43 1019.1
20260502225548 74 69 1.0 3.0 0.00 0.00 0.00 41 1019.1
20260502225544 73 21 1.0 3.0 0.00 0.00 0.00 42 1019.1
20260502224542 74 51 1.0 4.0 0.00 0.00 0.00 41 1019.1
20260502224042 74 29 1.0 4.0 0.00 0.00 0.00 41 1019.2
20260502223544 74 73 1.0 4.0 0.00 0.00 0.00 42 1019.2
20260502223540 74 72 2.0 4.0 0.00 0.00 0.00 42 1019.2
20260502222542 74 74 1.0 4.0 0.00 0.00 0.00 44 1019.3
20260502222538 74 68 1.0 4.0 0.00 0.00 0.00 42 1019.3
20260502221537 74 76 1.0 4.0 0.00 0.00 0.00 43 1019.4
20260502221037 74 355 1.0 4.0 0.00 0.00 0.00 44 1019.4
20260502220538 74 355 1.0 4.0 0.00 0.00 0.00 41 1019.3
20260502220042 74 61 1.0 6.0 0.00 0.00 0.00 41 1019.4
20260502220037 74 73 2.0 6.0 0.00 0.00 0.00 43 1019.4
20260502215037 75 82 2.0 3.0 0.00 0.00 0.00 42 1019.4
20260502214534 74 76 2.0 4.0 0.00 0.00 0.00 43 1019.5
20260502214034 74 49 1.0 4.0 0.00 0.00 0.00 43 1019.6
20260502213533 74 325 1.0 2.0 0.00 0.00 0.00 41 1019.6
20260502213033 74 11 1.0 2.0 0.00 0.00 0.00 42 1019.8
20260502212533 75 82 1.0 3.0 0.00 0.00 0.00 42 1019.7
20260502212036 75 69 1.0 3.0 0.00 0.00 0.00 42 1019.8
20260502212031 75 92 1.0 3.0 0.00 0.00 0.00 41 1019.8
20260502211032 75 69 1.0 3.0 0.00 0.00 0.00 40 1019.9
20260502210532 75 69 1.0 4.0 0.00 0.00 0.00 40 1019.9